EW8836 Weather Reports


time (UTC)temp
C
wind
direction
speed
KPH
gust
KPH
rain 1hr
cm
rain 24hr
cm
rain mn
cm
humidity
%
barometer
mb
20260509234633 12 226 0.0 4.8 0.00 0.03 0.00 90 1010.0
20260509233048 12 199 3.2 6.4 0.00 0.03 0.00 88 1010.1
20260509231554 12 233 0.0 4.8 0.00 0.03 0.00 90 1010.2
20260509230104 13 230 0.0 1.6 0.00 0.03 0.00 89 1010.3
20260509224548 13 231 0.0 6.4 0.00 0.03 0.00 88 1010.2
20260509223058 13 224 1.6 8.0 0.00 0.03 0.00 90 1010.2
20260509221603 13 205 0.0 4.8 0.00 0.03 0.00 90 1010.2
20260509220003 13 257 0.0 3.2 0.00 0.03 0.00 90 1010.3
20260509214544 14 258 0.0 4.8 0.00 0.03 0.03 88 1010.2
20260509213100 15 243 0.0 6.4 0.00 0.03 0.03 87 1010.2
20260509211554 15 231 1.6 4.8 0.00 0.03 0.03 87 1010.4
20260509210100 15 224 0.0 3.2 0.00 0.03 0.03 86 1010.4
20260509204607 15 219 0.0 3.2 0.00 0.03 0.03 87 1010.3
20260509203145 15 223 0.0 1.6 0.00 0.03 0.03 87 1010.1
20260509201629 15 229 0.0 1.6 0.00 0.03 0.03 86 1010.0
20260509194604 16 153 0.0 0.0 0.00 0.03 0.03 82 1009.7
20260509193121 16 153 0.0 0.0 0.00 0.03 0.03 80 1009.4
20260509191555 17 153 0.0 0.0 0.00 0.03 0.03 80 1009.4
20260509190140 17 153 0.0 0.0 0.00 0.03 0.03 78 1009.3
20260509184603 18 219 0.0 3.2 0.00 0.03 0.03 76 1009.2
20260509183050 18 259 0.0 6.4 0.00 0.03 0.03 75 1009.3
20260509181544 20 4 0.0 1.6 0.00 0.03 0.03 67 1009.0
20260509180105 20 12 0.0 0.0 0.00 0.03 0.03 65 1009.0
20260509174550 20 12 0.0 0.0 0.00 0.33 0.03 67 1008.8
20260509173105 21 12 0.0 0.0 0.00 0.33 0.03 65 1008.9
20260509171547 21 12 0.0 0.0 0.00 0.33 0.03 63 1008.9
20260509170101 21 12 0.0 1.6 0.00 0.33 0.03 61 1009.0
20260509164602 22 34 0.0 3.2 0.00 0.33 0.03 61 1008.9
20260509163107 21 51 1.6 4.8 0.00 0.33 0.03 58 1009.0
20260509161556 22 84 1.6 6.4 0.00 0.33 0.03 53 1009.2
20260509160047 23 53 0.0 4.8 0.00 0.33 0.03 53 1009.4
20260509154552 23 12 0.0 3.2 0.00 0.33 0.03 54 1009.5
20260509153054 22 207 0.0 6.4 0.00 0.33 0.03 55 1009.7
20260509151608 22 244 0.0 1.6 0.00 0.33 0.03 56 1009.7
20260509150106 23 47 0.0 6.4 0.00 0.33 0.03 50 1009.8
20260509144549 23 34 1.6 6.4 0.00 0.33 0.03 51 1010.0
20260509143047 23 67 1.6 8.0 0.00 0.33 0.03 51 1010.0
20260509141604 23 49 1.6 8.0 0.00 0.33 0.03 49 1010.2
20260509140057 23 67 3.2 9.7 0.00 0.33 0.03 50 1010.2
20260509134517 23 79 1.6 9.7 0.00 0.33 0.03 53 1010.3
20260509133041 23 47 3.2 9.7 0.00 0.33 0.03 54 1010.5
20260509131602 22 144 0.0 11.3 0.00 0.33 0.03 59 1010.7
20260509130106 22 259 0.0 11.3 0.00 0.33 0.03 60 1010.7
20260509124605 22 16 3.2 11.3 0.00 0.33 0.03 57 1010.8
20260509123052 22 82 1.6 12.9 0.00 0.33 0.03 55 1010.7
20260509121557 22 30 3.2 9.7 0.00 0.33 0.03 58 1010.9
20260509120056 22 69 3.2 11.3 0.00 0.33 0.03 57 1010.8
20260509114555 22 44 4.8 11.3 0.00 0.33 0.03 57 1011.0
20260509113050 22 41 1.6 8.0 0.00 0.33 0.03 60 1011.2
20260509111554 21 157 0.0 11.3 0.00 0.33 0.03 58 1011.4
20260509110106 22 204 0.0 6.4 0.00 0.33 0.03 63 1011.7
20260509104546 21 246 0.0 6.4 0.00 0.33 0.03 66 1011.8
20260509103101 21 63 1.6 6.4 0.00 0.33 0.03 62 1011.7
20260509101546 21 237 3.2 6.4 0.00 0.33 0.03 64 1011.7
20260509100059 20 32 1.6 4.8 0.00 0.33 0.03 62 1011.8
20260509094551 20 109 0.0 4.8 0.00 0.33 0.03 60 1012.0
20260509093055 20 250 1.6 4.8 0.00 0.33 0.03 71 1012.2
20260509091609 19 284 1.6 4.8 0.00 0.33 0.03 72 1012.6
20260509090047 18 243 1.6 6.4 0.00 0.33 0.03 72 1012.6
20260509084606 18 246 0.0 6.4 0.00 0.33 0.03 75 1012.7
20260509083050 18 248 1.6 4.8 0.00 0.33 0.03 70 1012.7
20260509081554 17 205 0.0 3.2 0.00 0.33 0.03 77 1012.9
20260509080052 17 204 0.0 1.6 0.00 0.33 0.03 80 1012.9
20260509074511 16 196 0.0 4.8 0.00 0.33 0.03 87 1012.9
20260509073103 15 224 0.0 3.2 0.00 0.33 0.03 90 1013.0
20260509071600 13 233 0.0 3.2 0.00 0.33 0.03 94 1013.0
20260509064555 11 102 0.0 1.6 0.00 0.33 0.03 98 1013.1
20260509063101 10 150 0.0 3.2 0.00 0.33 0.03 99 1013.0
20260509061604 9 242 0.0 3.2 0.00 0.33 0.03 99 1013.0
20260509060142 8 292 0.0 3.2 0.00 0.33 0.03 99 1013.0
20260509054602 7 118 0.0 1.6 0.00 0.33 0.03 99 1013.0
20260509053027 7 147 0.0 3.2 0.00 0.33 0.03 99 1012.9
20260509051502 7 186 0.0 3.2 0.00 0.33 0.03 99 1012.9
20260509044600 6 244 0.0 1.6 0.00 0.33 0.03 99 1012.5
20260509043056 6 224 0.0 1.6 0.00 0.33 0.03 99 1012.3
20260509041544 6 236 0.0 1.6 0.00 0.33 0.03 99 1012.3
20260509040142 7 255 0.0 1.6 0.00 0.33 0.03 99 1012.3
20260509034601 7 255 0.0 3.2 0.00 0.33 0.03 99 1012.4
20260509033051 7 236 0.0 1.6 0.00 0.33 0.03 99 1012.6
20260509031600 7 249 0.0 1.6 0.00 0.33 0.03 98 1012.6
20260509030050 7 191 0.0 1.6 0.00 0.33 0.03 98 1012.5
20260509024602 7 216 0.0 1.6 0.03 0.33 0.03 98 1012.5
20260509023106 7 229 0.0 1.6 0.03 0.33 0.03 98 1012.5
20260509021600 8 233 0.0 3.2 0.03 0.33 0.03 98 1012.7
20260509020107 8 210 0.0 0.0 0.03 0.33 0.03 98 1012.6
20260509014546 8 214 0.0 1.6 0.00 0.33 0.00 99 1012.8
20260509013058 8 239 0.0 1.6 0.00 0.33 0.00 98 1013.0
20260509011548 8 238 0.0 1.6 0.00 0.33 0.00 98 1013.0
20260509010059 9 256 0.0 1.6 0.00 0.33 0.00 98 1013.0
20260509004545 9 240 0.0 1.6 0.00 0.33 0.00 98 1013.1
20260509003059 10 188 0.0 0.0 0.00 0.33 0.00 98 1013.1
20260509001554 10 207 0.0 1.6 0.00 0.33 0.00 98 1013.2
20260509000052 10 229 0.0 1.6 0.00 0.33 0.00 97 1013.2